Theta_e
301 301 302 303 302 304 301 287 283 298 301 285 285 283 281 286 285 287 285 283 283 283 284 283 285 285 288 294 296 292 296 288 285 288 292 298 296 293 293 286 282 281 279 284
301 302 301 302 302 304 291 285 287 297 297 280 282 285 283 285 285 284 284 284 285 286 287 283 285 288 293 294 295 292 295 286 282 284 288 291 291 294 294 293 287 284 280 285
300 302 302 302 303 305 294 287 282 286 289 286 285 282 282 282 286 284 284 284 285 286 286 284 286 287 291 294 295 298 297 288 285 281 284 289 288 291 293 292 286 286 286 288
301 302 302 302 303 304 294 286 283 285 281 283 285 285 283 282 282 283 284 283 285 284 283 282 285 288 287 290 295 296 294 285 288 288 286 287 287 290 291 290 290 287 289 289
302 303 302 303 304 303 290 284 284 286 284 286 284 285 281 282 281 282 281 282 283 281 283 284 282 287 287 287 291 293 291 284 285 284 288 288 285 286 290 292 292 292 292 291
302 304 304 304 305 301 289 289 288 286 286 284 283 280 282 283 283 283 283 283 283 281 282 284 287 286 287 287 288 290 287 285 283 280 285 284 282 286 287 289 293 293 289 293
302 303 304 304 305 299 290 288 288 283 282 284 283 283 283 282 283 282 283 284 282 284 288 287 286 285 285 285 284 290 284 283 284 280 279 275 283 288 291 289 291 295 295 296
303 302 304 303 303 301 293 292 287 283 282 285 281 283 282 284 285 284 284 285 286 290 286 277 270 270 273 273 282 283 288 284 279 272 275 278 285 284 287 286 287 293 295 297
303 302 303 305 303 302 294 290 291 287 284 283 284 282 283 280 280 282 285 288 289 288 281 270 262 267 265 269 271 280 286 288 278 275 275 266 279 285 288 290 283 293 294 294
303 303 301 304 303 302 295 288 290 288 281 283 284 279 281 283 283 280 283 286 284 286 279 262 265 266 274 270 268 277 277 281 279 279 276 274 282 286 291 279 282 289 293 294
304 303 301 303 303 301 295 289 291 289 284 284 286 286 280 282 284 282 281 281 280 276 270 269 268 267 277 274 277 277 274 273 272 278 272 269 285 285 285 286 286 286 286 289
304 304 303 303 303 301 295 287 291 292 285 283 288 288 288 286 285 287 284 281 281 283 276 274 274 278 280 281 275 281 275 280 276 278 277 284 285 284 283 283 283 283 284 286
304 304 305 304 303 301 294 288 287 288 285 284 283 282 287 289 289 290 284 284 286 285 286 278 275 270 278 277 278 275 281 284 280 284 284 282 282 281 279 280 279 282 282 282
302 302 302 302 302 300 293 287 287 287 284 279 279 287 285 288 290 290 288 286 286 288 284 283 281 279 282 276 279 278 280 283 279 281 281 281 281 277 276 278 279 279 280 280
302 301 300 299 297 296 291 288 287 287 286 276 278 283 284 285 288 289 289 286 283 285 283 281 281 279 279 282 282 280 278 280 280 279 275 277 278 278 277 276 276 277 278 278
299 298 298 297 296 295 289 285 287 288 287 280 275 282 280 283 286 286 286 287 285 284 280 279 274 278 279 279 278 273 269 270 270 272 271 272 273 274 276 273 276 277 278 278
297 296 295 294 292 286 280 279 283 288 285 279 275 276 279 279 283 284 285 286 284 285 283 281 282 284 280 281 277 268 264 264 266 268 268 272 274 270 270 274 274 275 276 277
294 294 294 293 292 288 280 284 283 284 277 275 269 273 274 275 279 278 283 283 283 283 282 283 282 277 275 274 266 261 260 262 266 263 264 265 267 268 271 269 270 269 272 273
291 291 289 283 278 277 277 289 283 277 276 266 263 264 269 274 275 278 275 279 275 271 274 275 276 266 272 263 260 257 257 258 258 259 261 264 264 265 265 265 265 266 267 270
289 281 275 271 272 284 282 274 272 269 264 264 261 261 265 270 267 272 267 269 267 268 269 272 269 267 260 257 255 255 255 255 256 254 257 255 256 259 260 261 263 265 265 267
273 267 267 272 279 273 265 262 263 259 261 258 255 258 260 267 263 260 266 261 264 263 265 267 260 261 259 254 254 252 250 251 251 252 255 256 256 257 257 259 261 262 264 265
274 273 270 266 264 262 263 251 255 257 258 253 259 257 261 260 266 260 262 261 263 261 264 265 259 261 254 253 252 251 250 248 251 249 252 254 254 255 255 256 258 259 262 264
268 265 261 264 260 261 257 255 255 256 249 249 251 256 258 260 262 257 259 259 262 263 261 260 260 258 254 249 249 249 248 248 249 251 250 251 252 253 252 254 256 257 258 262
263 259 261 257 255 252 250 252 253 252 254 251 254 251 255 252 258 253 258 262 261 261 256 259 255 252 249 247 246 246 248 248 249 251 251 251 251 252 253 254 256 258 257 259
259 260 258 254 249 248 244 243 249 250 253 255 252 252 258 251 254 251 254 258 256 260 259 257 253 250 249 248 248 246 247 247 248 250 252 253 253 253 255 256 257 259 261 260
258 254 254 249 251 250 247 244 247 250 256 253 253 249 252 253 252 255 256 254 255 259 254 253 250 248 248 247 246 247 248 248 250 253 254 255 254 255 255 257 257 258 258 258
257 252 247 251 252 256 250 248 250 254 250 252 250 253 258 254 251 252 253 256 260 255 250 245 248 249 249 246 245 246 246 248 250 253 255 256 256 256 256 256 257 257 257 257
Wind_Speed
32 28 26 29 23 27 24 4 5 10 15 10 5 10 11 6 7 2 5 7 6 9 10 13 12 12 5 7 14 13 6 2 7 19 3 17 16 14 13 7 10 4 3 23
29 28 28 26 26 32 8 4 4 7 9 11 9 11 4 5 6 3 4 4 3 2 12 9 7 10 8 6 13 13 10 5 2 2 3 2 10 16 16 17 2 15 7 22
26 30 28 25 27 31 9 4 6 5 5 0 14 22 8 9 3 3 2 6 4 8 10 3 15 7 2 8 7 6 12 5 5 6 2 5 10 15 14 16 8 17 15 33
28 28 26 26 25 29 5 1 2 4 7 8 12 23 13 15 9 2 5 3 5 10 8 4 7 5 3 4 7 4 6 4 7 12 3 3 1 16 19 19 20 12 32 31
21 27 27 26 26 29 4 2 2 2 7 17 16 16 14 16 5 5 6 9 6 3 8 6 7 9 4 4 3 9 4 2 2 2 4 10 7 9 17 26 25 24 31 31
20 26 30 28 27 20 2 1 2 3 11 9 13 11 19 13 12 4 3 12 7 8 4 6 8 4 6 4 7 11 7 5 2 3 5 4 6 20 17 17 23 26 26 41
20 23 28 28 30 12 4 3 3 4 6 9 12 12 14 15 4 9 3 7 7 5 8 7 7 9 8 6 3 4 5 5 2 2 2 6 7 4 19 24 22 25 27 33
24 23 23 24 30 9 4 2 4 4 7 15 7 12 7 13 7 6 5 2 2 12 8 6 7 7 8 5 5 5 5 5 3 4 5 9 17 4 8 11 20 24 29 33
21 21 26 30 23 18 5 3 4 4 7 10 4 15 18 11 6 4 3 6 3 7 4 5 7 6 6 4 7 2 4 4 4 2 3 9 5 5 3 8 19 12 23 28
20 23 26 24 21 14 6 4 2 5 5 2 7 7 14 6 7 6 3 6 4 4 3 4 4 4 5 5 7 6 5 5 13 11 6 12 7 4 6 5 8 8 2 10
20 25 19 20 20 17 7 2 2 4 4 5 7 4 5 3 5 7 7 6 4 4 4 5 4 4 7 3 5 7 9 9 6 8 5 16 6 3 12 5 11 9 10 7
17 23 27 25 22 17 8 4 1 4 8 5 7 12 9 5 3 7 4 3 5 5 5 1 3 3 4 5 5 3 4 9 8 12 11 5 4 3 5 7 3 8 11 15
17 18 21 21 23 21 7 4 3 4 5 5 5 6 8 13 10 3 5 1 4 3 3 5 4 3 4 6 7 2 4 3 3 1 2 2 5 3 9 9 10 11 9 15
12 16 12 15 19 15 7 4 3 2 6 6 2 2 5 7 7 3 3 6 5 5 3 3 3 3 3 3 2 4 5 5 5 8 1 2 3 3 7 10 10 14 13 10
18 19 23 25 27 24 13 6 3 1 5 6 4 3 5 5 3 8 9 7 5 2 3 2 4 2 3 2 1 5 5 5 5 6 3 1 6 6 13 11 11 11 16 17
20 17 15 14 10 15 6 6 6 9 4 8 4 2 6 7 6 9 9 5 4 3 3 3 2 2 4 3 6 2 3 3 4 2 8 10 16 14 9 14 12 11 12 11
22 20 18 16 15 7 6 2 4 10 3 6 5 3 4 5 4 3 3 4 3 2 1 2 2 2 2 3 10 4 3 4 7 6 9 6 3 8 18 15 14 13 10 4
13 13 15 18 18 12 6 7 14 3 7 6 6 2 3 7 2 2 2 1 1 1 1 1 2 1 1 7 3 3 2 6 2 6 7 10 14 15 10 11 13 15 13 9
4 3 6 6 9 5 3 14 2 5 7 7 5 5 3 6 3 2 3 2 2 2 1 2 2 1 8 1 3 2 2 2 6 9 10 7 6 10 11 12 11 10 14 15
6 7 7 5 3 12 9 11 9 11 8 7 5 2 2 2 3 2 2 2 1 1 4 2 3 6 4 2 1 1 2 2 4 5 5 6 4 7 10 10 10 9 9 12
6 4 1 4 11 5 7 5 7 5 6 5 1 0 2 4 4 3 1 2 1 0 5 3 3 6 2 0 1 1 3 3 5 5 7 6 9 11 11 11 9 8 9 4
4 5 3 3 7 5 9 2 4 6 2 3 3 1 1 3 2 4 3 2 2 6 1 1 5 3 2 0 2 3 4 3 6 4 7 7 8 7 7 8 8 7 6 3
4 7 8 6 6 10 7 1 4 2 2 2 2 1 1 3 3 3 4 2 5 1 1 6 5 1 1 2 3 5 4 3 4 7 5 6 7 6 4 7 7 7 4 2
7 6 6 5 5 1 5 4 5 3 3 2 3 3 3 1 5 0 4 3 2 3 2 7 3 4 3 2 2 2 6 4 5 6 7 6 6 6 5 4 6 3 3 4
5 5 2 2 2 2 1 2 3 1 0 2 4 4 2 3 3 2 3 4 5 6 6 4 3 2 2 1 1 3 5 4 4 3 5 6 6 4 4 4 4 4 5 6
5 6 6 2 3 3 3 1 1 2 2 3 4 3 4 4 4 3 7 5 7 5 5 3 2 2 3 2 2 4 5 3 4 4 4 4 5 3 2 3 6 6 7 9
5 3 1 2 2 3 3 3 2 1 4 3 5 3 10 2 4 3 5 7 4 4 3 2 3 4 3 3 2 3 4 3 4 3 4 4 4 3 2 5 4 6 7 8
Wind_Direction
203 204 201 195 192 199 180 135 180 174 141 164 187 177 155 140 146 251 106 102 114 171 155 174 189 203 192 170 157 181 151 246 187 211 355 216 218 213 196 216 220 261 286 262
199 197 205 198 187 193 111 201 117 175 155 183 163 146 91 108 139 161 157 115 141 165 158 172 193 176 180 142 168 172 168 205 150 117 324 310 217 218 220 228 360 228 226 263
198 198 197 195 197 168 123 191 138 148 151 298 152 154 140 139 90 119 118 114 94 109 163 335 183 175 143 164 183 142 150 173 209 220 207 134 207 215 218 222 224 249 243 268
192 191 189 185 190 161 120 62 171 120 152 166 146 166 145 149 147 209 195 60 175 141 149 109 160 140 127 135 171 151 186 224 222 225 207 11 330 216 217 229 241 234 252 255
196 198 196 189 184 157 90 118 147 81 122 143 148 165 174 156 122 138 208 155 135 84 141 177 148 144 154 174 157 183 172 163 171 259 267 241 241 248 228 223 232 239 255 273
190 177 178 181 181 147 114 64 323 84 137 141 153 181 169 162 138 50 171 124 111 83 134 123 106 71 95 116 149 176 146 138 126 255 203 176 245 227 226 237 229 225 239 246
180 173 177 174 170 164 114 140 175 91 137 153 188 156 147 148 142 132 78 98 107 148 131 79 44 46 54 51 68 84 121 111 116 276 55 242 252 250 208 213 227 228 248 260
173 178 168 169 168 118 82 141 92 111 132 183 139 159 125 110 76 70 99 40 108 134 73 69 44 351 17 321 255 167 153 137 175 195 198 300 288 185 162 178 248 228 233 249
151 167 167 166 148 117 86 48 54 72 118 188 160 152 155 141 110 64 67 36 104 76 87 85 139 184 194 270 339 145 153 113 144 137 191 224 325 201 151 98 271 208 221 246
142 148 175 156 146 128 99 87 45 87 105 340 146 148 156 121 100 93 135 156 62 60 98 94 148 231 182 176 162 161 175 186 221 225 249 276 234 209 155 129 256 22 83 255
148 141 140 158 138 127 80 65 47 100 73 33 23 42 116 93 106 149 191 72 343 54 88 120 203 135 206 149 184 173 160 165 192 206 221 266 225 37 188 298 348 344 358 347
149 164 170 170 142 134 97 90 30 76 78 102 101 78 52 41 107 117 20 131 152 170 108 142 107 167 160 180 220 259 200 186 181 181 211 245 243 38 65 7 326 350 331 330
134 148 158 151 151 155 113 124 199 78 135 85 48 25 16 30 33 41 102 326 168 101 160 148 173 165 139 178 224 185 255 214 201 346 157 332 352 64 25 2 340 334 334 317
130 131 132 128 153 148 115 96 329 60 93 99 50 315 37 342 16 22 250 126 88 101 91 112 146 175 179 204 237 199 203 145 196 256 123 255 195 114 3 354 347 340 333 335
103 103 112 114 120 120 105 124 65 312 118 120 99 112 13 3 18 59 53 68 85 76 81 118 190 176 126 208 221 238 185 193 191 248 112 269 262 1 350 342 344 340 329 332
80 82 78 74 65 22 28 35 5 10 47 97 90 81 21 1 33 60 53 50 65 89 125 193 267 265 109 193 236 152 93 41 25 306 333 297 290 299 343 334 327 327 319 322
75 74 75 79 88 77 64 114 291 326 25 89 97 65 24 348 343 35 41 31 46 54 63 224 209 192 140 234 242 122 62 345 318 326 338 271 333 315 324 321 332 320 291 288
81 85 88 85 90 93 36 7 12 48 81 60 91 79 56 5 25 84 352 96 70 143 255 291 186 293 32 254 88 115 54 311 211 8 336 289 294 299 315 345 343 337 324 331
52 66 59 37 32 40 278 326 33 58 80 105 75 120 161 336 24 58 26 27 174 300 207 227 132 221 223 208 105 65 2 17 300 311 297 298 318 310 321 330 333 335 325 323
77 51 40 13 296 313 336 4 24 20 356 27 85 0 88 26 350 81 65 30 221 257 252 78 202 251 80 71 125 160 252 298 327 336 327 339 314 321 315 311 307 304 305 311
39 55 143 246 330 44 31 49 54 333 37 11 333 13 121 324 105 184 70 204 265 196 259 154 278 269 176 299 333 319 286 286 275 243 267 263 267 285 294 300 296 296 297 305
176 145 97 41 33 43 77 10 329 46 172 319 107 253 16 305 31 90 338 168 35 241 255 126 268 227 194 328 280 303 317 311 302 257 275 281 276 270 273 278 286 288 292 329
44 49 49 46 311 46 88 93 320 23 199 287 15 34 20 348 32 72 73 67 231 27 87 230 233 114 152 268 299 307 320 342 318 314 299 297 289 293 269 291 292 300 333 1
66 72 28 81 338 16 171 166 161 225 98 106 79 7 45 344 36 281 96 250 47 285 281 242 256 235 239 271 278 340 314 335 322 309 306 301 302 296 303 304 302 319 27 15
71 58 55 28 235 11 247 211 98 333 121 94 61 37 33 313 94 83 78 19 260 218 234 235 226 218 249 273 310 311 306 329 320 305 309 311 311 320 324 338 343 11 56 65
70 63 93 311 69 321 339 350 107 224 103 67 51 92 58 268 141 74 213 131 230 248 221 216 147 206 228 246 266 275 273 289 297 314 305 303 313 316 318 24 33 40 58 61
53 11 5 98 62 125 173 135 175 63 74 156 106 119 218 99 50 279 195 209 221 219 236 212 200 199 218 224 281 291 309 333 336 320 327 314 308 317 10 57 32 60 65 70